CW8553 Weather Reports


Display with metric or nautical units.
time (UTC)temp
F
wind
direction
speed
MPH
gust
MPH
rain 1hr
in
rain 24hr
in
rain mn
in
humidity
%
barometer
mb
20260502161539 52 0 0.0 0.0 0.00 0.00 0.00 90 1017.0
20260502151553 51 0 0.0 0.0 0.00 0.00 0.00 93 1016.9
20260502123047 50 0 0.0 0.0 0.00 0.00 0.00 93 1016.8
20260502121538 50 0 0.0 0.0 0.00 0.00 0.00 92 1016.9
20260502114537 50 0 0.0 0.0 0.00 0.00 0.00 92 1016.8
20260502113041 50 0 0.0 0.0 0.00 0.00 0.00 91 1016.8
20260502111538 50 0 0.0 0.0 0.00 0.00 0.00 91 1016.8
20260502110041 51 0 0.0 0.0 0.00 0.00 0.00 91 1017.3
20260502104539 51 0 0.0 0.0 0.00 0.00 0.00 91 1017.4
20260502103037 50 0 0.0 0.0 0.00 0.00 0.00 90 1017.0
20260502101537 51 0 0.0 0.0 0.00 0.00 0.00 89 1016.6
20260502070047 56 0 0.0 0.0 0.00 0.00 0.00 73 1016.4
20260502064541 57 0 0.0 0.0 0.00 0.00 0.00 73 1016.3
20260502063038 57 0 0.0 0.0 0.00 0.00 0.00 73 1016.2
20260502061539 58 0 0.0 0.0 0.00 0.00 0.00 72 1016.2
20260502060036 59 0 0.0 0.0 0.00 0.00 0.00 70 1016.3
20260502054539 60 0 0.0 0.0 0.00 0.00 0.00 67 1016.0
20260502053039 61 0 0.0 0.0 0.00 0.00 0.00 63 1015.9
20260502051539 62 0 0.0 0.0 0.00 0.00 0.00 62 1015.8
20260502050039 62 0 0.0 0.0 0.00 0.00 0.00 61 1015.7
20260502044536 62 0 0.0 0.0 0.00 0.00 0.00 60 1015.7
20260502043036 62 0 0.0 0.0 0.00 0.00 0.00 61 1015.6
20260502041539 62 0 0.0 0.0 0.00 0.00 0.00 62 1015.5
20260502040040 63 0 0.0 0.0 0.00 0.00 0.00 65 1015.3
20260502034539 63 0 0.0 0.0 0.00 0.00 0.00 66 1015.1
20260502033037 63 0 0.0 0.0 0.00 0.00 0.00 64 1014.8
20260502031536 64 0 0.0 0.0 0.00 0.00 0.00 63 1014.8
20260502030039 65 0 0.0 0.0 0.00 0.00 0.00 61 1014.6
20260502024537 66 0 0.0 0.0 0.00 0.00 0.00 57 1014.5
20260502023038 66 0 0.0 0.0 0.00 0.00 0.00 56 1014.4
20260502021538 67 0 0.0 0.0 0.00 0.00 0.00 54 1014.4
20260502020035 67 0 0.0 0.0 0.00 0.00 0.00 53 1014.2
20260502014535 67 0 0.0 0.0 0.00 0.00 0.00 52 1014.3
20260502013040 67 0 0.0 0.0 0.00 0.00 0.00 49 1014.4
20260502011538 68 0 0.0 0.0 0.00 0.00 0.00 50 1014.4
20260502010036 69 0 0.0 0.0 0.00 0.00 0.00 51 1014.5
20260502004540 69 0 0.0 0.0 0.00 0.00 0.00 48 1014.5
20260502003039 70 0 0.0 0.0 0.00 0.00 0.00 47 1014.5
20260502001538 70 0 0.0 0.0 0.00 0.00 0.00 49 1014.5
20260502000040 70 0 0.0 0.0 0.00 0.00 0.00 50 1014.5
20260501234537 70 0 0.0 1.0 0.00 0.00 0.00 48 1014.3
20260501233036 71 0 0.0 3.0 0.00 0.00 0.00 50 1014.5
20260501231540 71 184 0.0 3.0 0.00 0.00 0.00 52 1014.5
20260501230039 70 0 0.0 2.0 0.00 0.00 0.00 58 1014.7
20260501224539 72 116 0.0 3.0 0.00 0.00 0.00 54 1014.9
20260501223038 72 0 0.0 2.0 0.00 0.00 0.00 53 1015.0
20260501221536 71 109 0.0 3.0 0.00 0.00 0.00 53 1015.2
20260501220046 71 0 0.0 4.0 0.00 0.00 0.00 50 1015.3
20260501214551 71 0 0.0 2.0 0.00 0.00 0.00 52 1015.4
20260501213037 71 0 0.0 2.0 0.00 0.00 0.00 53 1015.4
20260501211540 70 186 0.0 4.0 0.00 0.00 0.00 52 1015.5
20260501210043 69 0 0.0 3.0 0.00 0.00 0.00 56 1015.4
20260501204606 69 0 0.0 6.0 0.00 0.00 0.00 56 1015.5
20260501203035 69 0 1.0 6.0 0.00 0.00 0.00 54 1015.6
20260501201540 69 106 0.0 4.0 0.00 0.00 0.00 62 1015.6
20260501200042 68 0 0.0 4.0 0.00 0.00 0.00 60 1015.7
20260501194539 66 163 0.0 6.0 0.00 0.00 0.00 61 1015.7
20260501193040 65 184 0.0 4.0 0.00 0.00 0.00 60 1015.7
20260501191535 66 111 1.0 4.0 0.00 0.00 0.00 61 1016.0
20260501190037 64 110 0.0 3.0 0.00 0.00 0.00 64 1016.1
20260501184539 64 0 0.0 3.0 0.00 0.00 0.00 67 1016.1
20260501183037 65 0 1.0 3.0 0.00 0.00 0.00 64 1016.3
20260501181547 64 109 0.0 3.0 0.00 0.00 0.00 65 1016.2
20260501180038 65 107 1.0 3.0 0.00 0.00 0.00 63 1016.4
20260501174543 64 107 0.0 3.0 0.00 0.00 0.00 65 1016.4
20260501173041 64 0 0.0 3.0 0.00 0.00 0.00 67 1016.7
20260501171539 65 0 0.0 3.0 0.00 0.00 0.00 60 1016.7
20260501170042 64 0 0.0 2.0 0.00 0.00 0.00 61 1016.7
20260501164542 63 0 0.0 2.0 0.00 0.00 0.00 63 1016.9
20260501163039 63 0 0.0 2.0 0.00 0.00 0.00 66 1017.1